Location: Unspecified
(0.0000°N, 0.0000°E)
Time: 20:20:40
(UTC+00:00)

Courier 1B Rocket - Visible Passes

Search period start: 14 July 2020 00:00
Search period end: 24 July 2020 00:00
Orbit: 920 x 1202 km, 28.2° (Epoch: 13 July)

Date Brightness Start Highest point End Pass type
(mag) Time Alt. Az. Time Alt. Az. Time Alt. Az.
14 Jul 6.8 19:08:10 10° NNW 19:12:04 17° NNE 19:15:56 10° ENE visible
14 Jul 6.6 20:59:35 10° NW 21:02:19 27° NW 21:02:19 27° NW visible
15 Jul 5.5 19:58:55 10° NW 20:04:43 40° NNE 20:05:04 40° NE visible
16 Jul 7.3 05:36:07 10° S 05:39:27 13° SSE 05:42:50 10° SE visible
16 Jul 6.3 18:58:26 10° NNW 19:03:37 26° NNE 19:07:51 13° ENE visible
16 Jul 6.3 20:50:52 10° WNW 20:54:13 34° WNW 20:54:13 34° WNW visible
17 Jul 4.9 19:49:52 10° NW 19:56:07 65° NNE 19:57:02 57° ENE visible
18 Jul 7.2 05:26:04 10° SSW 05:31:04 19° SSE 05:36:12 10° ESE visible
18 Jul 5.6 18:49:06 10° NW 18:55:05 41° NNE 18:59:53 15° E visible
18 Jul 6.1 20:42:27 10° WNW 20:46:16 35° W 20:46:16 35° W visible
19 Jul 7.3 04:26:27 10° S 04:29:27 13° SSE 04:32:31 10° SE visible
19 Jul 4.8 19:41:08 10° WNW 19:47:29 79° SSW 19:49:08 51° SE visible
20 Jul 6.8 05:16:28 10° SSW 05:22:31 27° SSE 05:28:49 10° E visible
20 Jul 5.1 18:40:02 10° NW 18:46:29 67° NNE 18:52:02 13° ESE visible
20 Jul 6.3 20:34:25 10° W 20:38:24 28° SW 20:38:24 28° SW visible
21 Jul 7.0 04:18:19 15° S 04:21:04 18° SSE 04:25:57 10° ESE visible
21 Jul 5.4 19:32:41 10° WNW 19:38:51 49° SSW 19:41:19 32° SSE visible
22 Jul 7.5 03:21:11 11° SE 03:21:11 11° SE 03:22:06 10° SE visible
22 Jul 6.2 05:07:34 12° SW 05:13:50 39° SSE 05:20:53 10° E visible
22 Jul 5.1 18:31:14 10° WNW 18:37:51 77° SSW 18:44:08 10° SE visible
22 Jul 6.7 20:26:53 10° WSW 20:30:37 20° SW 20:30:37 20° SW visible
23 Jul 6.5 04:10:27 23° S 04:12:31 26° SSE 04:18:34 10° E visible
23 Jul 6.2 19:24:38 10° W 19:30:15 31° SSW 19:33:33 20° SSE visible
